PKDRZ WIII-WIHH

Flight info

Callsign PKDRZ
Flight time 0h 7m
Altitude 3000
Route KEMBA SOUTHJAKARTAVFR
Aircraft H160/L-SBDGRY/S

Departure

Time 2026-05-06 09:27
Airport Soekarno-Hatta International Airport (WIII)

Arrival

Time 2026-05-06 09:35
Airport Halim Perdanakusuma International Airport (WIHH)
Time Latitude Longitude Altitude Speed Heading
2026-05-06 09:19 -6.14041 106.65574 37 ft 0 kts 273°
2026-05-06 09:22 -6.14040 106.65573 35 ft 0 kts 243°
2026-05-06 09:22 -6.14041 106.65573 35 ft 0 kts 197°
2026-05-06 09:23 -6.14042 106.65574 35 ft 0 kts 130°
2026-05-06 09:25 -6.14042 106.65575 35 ft 0 kts 132°
2026-05-06 09:25 -6.14044 106.65577 47 ft 0 kts 130°
2026-05-06 09:25 -6.14052 106.65589 139 ft 3 kts 130°
2026-05-06 09:26 -6.14052 106.65595 401 ft 1 kts 130°
2026-05-06 09:26 -6.14058 106.65591 374 ft 2 kts 130°
2026-05-06 09:26 -6.14149 106.65659 458 ft 38 kts 131°
2026-05-06 09:26 -6.14523 106.65863 521 ft 78 kts 159°
2026-05-06 09:27 -6.15066 106.66111 559 ft 91 kts 150°
2026-05-06 09:27 -6.15605 106.66478 582 ft 97 kts 139°
2026-05-06 09:27 -6.16083 106.66958 641 ft 96 kts 127°
2026-05-06 09:27 -6.16496 106.67481 767 ft 95 kts 124°
2026-05-06 09:28 -6.16884 106.68002 898 ft 92 kts 122°
2026-05-06 09:28 -6.17252 106.68526 1023 ft 92 kts 121°
2026-05-06 09:28 -6.17613 106.69055 1123 ft 93 kts 120°
2026-05-06 09:28 -6.17850 106.69414 1192 ft 93 kts 119°
2026-05-06 09:29 -6.18200 106.69970 1293 ft 95 kts 118°
2026-05-06 09:29 -6.18552 106.70537 1387 ft 96 kts 122°
2026-05-06 09:29 -6.19038 106.71003 1470 ft 98 kts 142°
2026-05-06 09:29 -6.19701 106.71592 1519 ft 98 kts 103°
2026-05-06 09:30 -6.19840 106.72260 1576 ft 98 kts 97°
2026-05-06 09:30 -6.19976 106.72695 1616 ft 100 kts 112°
2026-05-06 09:30 -6.20386 106.73263 1675 ft 101 kts 131°
2026-05-06 09:30 -6.20899 106.73749 1739 ft 102 kts 136°
2026-05-06 09:31 -6.21465 106.74187 1813 ft 103 kts 142°
2026-05-06 09:31 -6.22076 106.74570 1863 ft 104 kts 148°
2026-05-06 09:31 -6.22725 106.74898 1917 ft 105 kts 153°
2026-05-06 09:31 -6.23403 106.75164 1975 ft 105 kts 159°
2026-05-06 09:32 -6.24102 106.75372 2029 ft 105 kts 162°
2026-05-06 09:32 -6.24800 106.75611 1993 ft 110 kts 155°
2026-05-06 09:32 -6.25415 106.76131 1562 ft 122 kts 120°
2026-05-06 09:32 -6.25838 106.76863 1297 ft 118 kts 117°
2026-05-06 09:33 -6.26114 106.77591 1150 ft 105 kts 93°
2026-05-06 09:33 -6.25901 106.78206 1065 ft 88 kts 46°
2026-05-06 09:33 -6.25514 106.78628 1018 ft 76 kts 43°
2026-05-06 09:33 -6.25150 106.78968 967 ft 67 kts 36°
2026-05-06 09:34 -6.24793 106.79219 923 ft 61 kts 34°
2026-05-06 09:34 -6.24449 106.79480 833 ft 64 kts 37°
2026-05-06 09:34 -6.24094 106.79765 746 ft 67 kts 38°
2026-05-06 09:34 -6.23733 106.80069 656 ft 69 kts 39°
2026-05-06 09:35 -6.23377 106.80374 588 ft 62 kts 37°
2026-05-06 09:35 -6.23112 106.80610 620 ft 38 kts 43°
2026-05-06 09:35 -6.23005 106.80774 561 ft 26 kts 53°
2026-05-06 09:35 -6.22804 106.80903 454 ft 43 kts 24°
2026-05-06 09:36 -6.22763 106.81142 415 ft 45 kts 126°
2026-05-06 09:36 -6.22949 106.81428 380 ft 52 kts 110°
2026-05-06 09:36 -6.22880 106.81759 372 ft 49 kts 61°
2026-05-06 09:36 -6.22789 106.82069 397 ft 44 kts 82°
2026-05-06 09:37 -6.22775 106.82361 400 ft 39 kts 65°
2026-05-06 09:37 -6.22700 106.82537 497 ft 29 kts 76°
2026-05-06 09:37 -6.22440 106.82710 762 ft 62 kts 55°
2026-05-06 09:37 -6.22134 106.83107 845 ft 75 kts 67°
2026-05-06 09:38 -6.21755 106.83482 818 ft 79 kts 28°
2026-05-06 09:38 -6.21395 106.83706 861 ft 29 kts 180°
2026-05-06 09:38 -6.21540 106.83685 723 ft 27 kts 197°
2026-05-06 09:38 -6.21694 106.83562 745 ft 21 kts 197°
2026-05-06 09:39 -6.21665 106.83524 800 ft 17 kts 194°
2026-05-06 09:39 -6.21785 106.83487 838 ft 26 kts 195°
2026-05-06 09:39 -6.21881 106.83458 694 ft 12 kts 178°
2026-05-06 09:39 -6.22052 106.83495 523 ft 53 kts 151°
2026-05-06 09:40 -6.22572 106.83428 554 ft 104 kts 227°
2026-05-06 09:40 -6.22491 106.82962 308 ft 75 kts
2026-05-06 09:40 -6.21880 106.83064 319 ft 11 kts 318°
2026-05-06 09:41 -6.21757 106.83020 322 ft 36 kts 322°
2026-05-06 09:41 -6.21735 106.83015 318 ft 0 kts 266°
2026-05-06 09:41 -6.21735 106.83012 318 ft 2 kts 265°
2026-05-06 09:52 -6.21734 106.83011 326 ft 0 kts 262°
2026-05-06 09:53 -6.21735 106.83011 324 ft 0 kts 262°
2026-05-06 09:53 -6.21744 106.83022 623 ft 3 kts 261°
2026-05-06 09:53 -6.21749 106.83025 964 ft 1 kts 261°
2026-05-06 09:53 -6.21738 106.83014 1296 ft 3 kts 261°
2026-05-06 09:54 -6.21747 106.82968 1595 ft 8 kts 29°
2026-05-06 09:54 -6.21716 106.83110 1680 ft 72 kts 103°
2026-05-06 09:54 -6.21948 106.83839 1315 ft 131 kts 124°
2026-05-06 09:54 -6.22641 106.84503 1061 ft 149 kts 158°
2026-05-06 09:55 -6.23617 106.84921 796 ft 152 kts 154°
2026-05-06 09:55 -6.24472 106.85497 686 ft 144 kts 153°
2026-05-06 09:55 -6.25365 106.85816 566 ft 125 kts 163°
2026-05-06 09:55 -6.26049 106.86128 486 ft 94 kts 136°
2026-05-06 09:56 -6.26390 106.86597 379 ft 83 kts 116°
2026-05-06 09:56 -6.26762 106.87121 315 ft 99 kts 118°
2026-05-06 09:56 -6.27009 106.87768 264 ft 102 kts 98°
2026-05-06 09:56 -6.26906 106.88453 112 ft 95 kts 75°
2026-05-06 09:57 -6.26775 106.88980 108 ft 61 kts 72°
2026-05-06 09:57 -6.26738 106.89266 104 ft 22 kts 69°
2026-05-06 09:57 -6.26787 106.89336 102 ft 8 kts 68°
2026-05-06 09:57 -6.26797 106.89328 98 ft 5 kts 68°
2026-05-06 09:58 -6.26779 106.89320 146 ft 14 kts 67°
2026-05-06 09:58 -6.26702 106.89477 144 ft 37 kts 110°
2026-05-06 09:58 -6.26587 106.89717 161 ft 44 kts 29°
2026-05-06 09:58 -6.26552 106.89584 142 ft 39 kts 138°
2026-05-06 09:59 -6.26647 106.89570 113 ft 12 kts 150°
2026-05-06 09:59 -6.26693 106.89542 92 ft 1 kts 164°
2026-05-06 09:59 -6.26702 106.89549 94 ft 6 kts 112°
2026-05-06 09:59 -6.26705 106.89589 102 ft 2 kts 113°
2026-05-06 10:00 -6.26746 106.89636 99 ft 10 kts 150°
2026-05-06 10:00 -6.26756 106.89647 91 ft 0 kts 159°